Location: Igri�s
(42.2144°N, 0.4320°W)
Time: 16:02:29
(UTC+00:00)

Cosmos 44 - Pass Details

Date: 13 August 2020
Orbit: 583 x 779 km, 65.1° (Epoch: 18 September)

Event Time Altitude Azimuth Distance (km) Brightness Sun altitude
Rises 20:58:01 0° 333° (NNW) 3,042 7.9 -18.8°
Reaches altitude 10° 21:00:29 10° 343° (NNW) 2,157 6.7 -19.1°
Maximum altitude 21:05:00 35° 49° (NE) 1,157 4.3 -19.8°
Enters shadow 21:06:34 29° 84° (E) 1,329 4.4 -20.0°
